This demonstration page uses our WeatherBlox Daily Observations layout. Learn more.

Left ArrowRight Arrow

39.01783, -85.05884

Hourly Observations for April 25, 2020

Temp ( °F °C ) Dew Point ( °F °C ) Humidity (%) Winds ( mph kmh ) Pressure ( in mb ) Visibility ( mi km ) Precip ( " mm )
12:52 am 00:52 Mostly Cloudy 54 12.2 47 8.3 77 77 S 3 6 29.86 1011 10 16 N/A
1:52 am 01:52 Mostly Cloudy 54 12.2 46 7.8 75 75 N N/A 29.87 1012 10 16 N/A
2:52 am 02:52 Partly Cloudy 54 12.2 47 8.3 77 77 E 3 6 29.86 1011 10 16 N/A
3:52 am 03:52 Mostly Cloudy 52 11.1 46 7.8 80 80 N N/A 29.85 1011 9 14 N/A
4:52 am 04:52 Mostly Cloudy 50 10 45 7.2 83 83 ENE 6 9 29.85 1011 10 16 N/A
5:52 am 05:52 Mostly Cloudy 51 10.6 47 8.3 86 86 N N/A 29.87 1011 10 16 N/A
6:52 am 06:52 Cloudy with Mist and Fog 50 10 46 7.8 86 86 N N/A 29.87 1012 6 10 N/A
7:52 am 07:52 Mostly Cloudy 52 11.1 48 8.9 86 86 ESE 6 9 29.86 1011 7 11 N/A
8:52 am 08:52 Mostly Cloudy 56 13.3 49 9.4 77 77 ESE 8 13 29.86 1011 9 14 N/A
9:52 am 09:52 Mostly Cloudy 57 13.9 49 9.4 74 74 SE 14 22 29.85 1011 10 16 N/A
10:52 am 10:52 Mostly Cloudy 62 16.7 50 10 65 65 SE 17 28 29.83 1010 10 16 N/A
11:52 am 11:52 Mostly Cloudy 65 18.3 48 8.9 54 54 SE 16 26 29.82 1010 10 16 N/A
12:52 pm 12:52 Cloudy 65 18.3 49 9.4 56 56 SE 17 28 29.80 1009 10 16 N/A
1:52 pm 13:52 Cloudy 66 18.9 49 9.4 54 54 SE 14 22 29.77 1008 10 16 N/A
2:52 pm 14:52 Cloudy 66 18.9 49 9.4 54 54 ESE 12 19 29.75 1007 10 16 N/A
3:52 pm 15:52 Cloudy 65 18.3 49 9.4 56 56 ESE 12 19 29.73 1007 10 16 0.00 0.00
4:52 pm 16:52 Cloudy with Light Rain 62 16.7 50 10 65 65 SSE 26 43 29.72 1007 2 3 0.00 0.00
5:52 pm 17:52 Cloudy with Light Rain 57 13.9 53 11.7 87 87 N N/A 29.73 1007 5 8 0.11 2.79
6:52 pm 18:52 Cloudy 58 14.4 55 12.8 90 90 ENE 12 19 29.72 1006 10 16 0.02 0.51
7:24 pm 19:24 Cloudy with Light Rain 58 14.4 54 12.2 87 87 ESE 6 9 29.73 1007 10 16 0.00 0.00
7:33 pm 19:33 Cloudy 58 14.4 54 12.2 87 87 E 7 11 29.73 1007 9 14 0.00 0.00
7:52 pm 19:52 Cloudy with Light Rain 57 13.9 54 12.2 90 90 E 6 9 29.72 1006 6 10 0.00 0.00
8:02 pm 20:02 Cloudy with Light Rain 57 13.9 54 12.2 90 90 E 7 11 29.72 1006 8 13 0.00 0.00
8:52 pm 20:52 Cloudy 57 13.9 53 11.7 87 87 ENE 6 9 29.69 1006 10 16 0.00 0.00
9:52 pm 21:52 Cloudy 56 13.3 53 11.7 90 90 E 6 9 29.69 1005 10 16 N/A
10:45 pm 22:45 Cloudy with Light Rain 56 13.3 53 11.7 90 90 ENE 6 9 29.71 1006 10 16 0.00 0.00
10:52 pm 22:52 Cloudy with Light Rain 56 13.3 53 11.7 90 90 ENE 6 9 29.69 1006 10 16 0.00 0.00
11:52 pm 23:52 Cloudy with Light Rain 56 13.3 53 11.7 90 90 NE 6 9 29.68 1005 6 10 0.04 1.02

Powered by AerisWeather